CW6099 Weather Reports


time (UTC)temp
F
wind
direction
speed
knots
gust
knots
rain 1hr
in
rain 24hr
in
rain mn
in
humidity
%
barometer
mb
20260906204706 93 160 14.8 23.5 0.00 0.00 0.00 46 1014.5
20260906204241 93 169 16.5 23.5 0.00 0.00 0.00 46 1014.6
20260906204133 93 163 15.6 25.2 0.00 0.00 0.00 46 1014.5
20260906203643 92 205 13.0 25.2 0.00 0.00 0.00 45 1014.7
20260906203238 92 167 16.5 26.9 0.00 0.00 0.00 45 1014.7
20260906203149 93 157 17.4 26.1 0.00 0.00 0.00 45 1014.8
20260906202658 93 157 14.8 26.1 0.00 0.00 0.00 46 1014.9
20260906202234 92 167 15.6 25.2 0.00 0.00 0.00 47 1015.0
20260906202146 92 134 14.8 25.2 0.00 0.00 0.00 47 1015.0
20260906201638 92 158 14.8 22.6 0.00 0.00 0.00 46 1015.0
20260906201308 92 184 17.4 26.1 0.00 0.00 0.00 45 1015.1
20260906201143 92 178 18.2 22.6 0.00 0.00 0.00 45 1015.1
20260906200713 93 144 13.9 21.7 0.00 0.00 0.00 46 1015.1
20260906200248 93 141 13.0 21.7 0.00 0.00 0.00 45 1015.2
20260906200141 93 144 14.8 27.8 0.00 0.00 0.00 46 1015.2
20260906195649 92 145 13.0 27.8 0.00 0.00 0.00 48 1015.2
20260906195306 92 134 16.5 23.5 0.00 0.00 0.00 48 1015.3
20260906195136 92 190 15.6 23.5 0.00 0.00 0.00 47 1015.3
20260906194646 92 146 13.0 25.2 0.00 0.00 0.00 48 1015.3
20260906194242 92 171 14.8 25.2 0.00 0.00 0.00 48 1015.4
20260906194134 92 143 13.0 26.9 0.00 0.00 0.00 48 1015.4
20260906193644 92 150 16.5 23.5 0.00 0.00 0.00 48 1015.4
20260906193241 92 157 14.8 24.3 0.00 0.00 0.00 47 1015.5
20260906193134 92 156 15.6 25.2 0.00 0.00 0.00 48 1015.6
20260906192643 92 179 13.9 25.2 0.00 0.00 0.00 47 1015.7
20260906192239 92 147 13.9 24.3 0.00 0.00 0.00 48 1015.7
20260906192136 92 126 15.6 26.9 0.00 0.00 0.00 47 1015.7
20260906191646 91 165 14.8 25.2 0.00 0.00 0.00 49 1015.7
20260906191242 91 101 18.2 29.5 0.00 0.00 0.00 49 1015.6
20260906191135 91 159 18.2 26.9 0.00 0.00 0.00 49 1015.8
20260906190703 91 146 15.6 22.6 0.00 0.00 0.00 48 1016.0
20260906190239 91 139 13.0 24.3 0.00 0.00 0.00 47 1016.0
20260906190152 91 138 14.8 24.3 0.00 0.00 0.00 47 1016.0
20260906185641 91 156 11.3 22.6 0.00 0.00 0.00 50 1016.0
20260906185238 91 192 13.9 22.6 0.00 0.00 0.00 48 1016.1
20260906185151 91 186 14.8 22.6 0.00 0.00 0.00 49 1016.1
20260906184700 90 155 13.0 21.7 0.00 0.00 0.00 51 1016.1
20260906184236 90 174 12.2 22.6 0.00 0.00 0.00 52 1016.2
20260906184209 90 165 11.3 22.6 0.00 0.00 0.00 50 1016.1
20260906183658 89 155 12.2 22.6 0.00 0.00 0.00 51 1016.3
20260906183254 89 111 14.8 24.3 0.00 0.00 0.00 52 1016.4
20260906183147 89 146 15.6 24.3 0.00 0.00 0.00 52 1016.3
20260906182636 89 141 13.9 22.6 0.00 0.00 0.00 53 1016.4
20260906182253 88 140 13.0 22.6 0.00 0.00 0.00 54 1016.4
20260906182148 88 131 13.9 22.6 0.00 0.00 0.00 53 1016.4
20260906181638 88 139 14.8 23.5 0.00 0.00 0.00 53 1016.5
20260906181233 88 154 13.0 23.5 0.00 0.00 0.00 55 1016.7
20260906181147 88 175 13.0 23.5 0.00 0.00 0.00 54 1016.7
20260906180636 88 169 9.6 24.3 0.00 0.00 0.00 57 1016.8
20260906180247 88 148 14.8 24.3 0.00 0.00 0.00 57 1016.9
20260906180139 88 166 16.5 24.3 0.00 0.00 0.00 56 1016.9
20260906175650 87 126 13.9 24.3 0.00 0.00 0.00 56 1016.9
20260906175246 87 133 13.0 22.6 0.00 0.00 0.00 58 1017.0
20260906175139 87 157 13.0 20.9 0.00 0.00 0.00 57 1017.1
20260906174649 87 137 12.2 26.1 0.00 0.00 0.00 59 1017.2
20260906174246 86 148 13.9 26.1 0.00 0.00 0.00 58 1017.3
20260906174138 86 153 13.0 26.1 0.00 0.00 0.00 58 1017.3
20260906173648 85 144 13.9 20.9 0.00 0.00 0.00 61 1017.4
20260906173245 85 142 10.4 20.0 0.00 0.00 0.00 60 1017.4
20260906173143 85 146 10.4 25.2 0.00 0.00 0.00 61 1017.4
20260906172652 85 123 13.9 25.2 0.00 0.00 0.00 61 1017.4
20260906172248 85 164 13.9 22.6 0.00 0.00 0.00 61 1017.4
20260906172141 85 142 13.0 22.6 0.00 0.00 0.00 61 1017.4
20260906171650 84 169 16.5 25.2 0.00 0.00 0.00 63 1017.6
20260906171247 83 159 13.9 20.9 0.00 0.00 0.00 66 1017.6
20260906171140 82 134 13.0 19.1 0.00 0.00 0.00 66 1017.6
20260906170650 82 171 12.2 21.7 0.00 0.00 0.00 64 1017.6
20260906170246 82 168 13.0 21.7 0.00 0.00 0.00 64 1017.6
20260906170157 82 171 13.9 21.7 0.00 0.00 0.00 64 1017.6
20260906165645 82 153 13.9 21.7 0.00 0.00 0.00 64 1017.7
20260906165242 82 131 12.2 24.3 0.00 0.00 0.00 64 1017.7
20260906165135 82 173 12.2 24.3 0.00 0.00 0.00 65 1017.6
20260906164648 81 195 15.6 24.3 0.00 0.00 0.00 64 1017.6
20260906164238 81 151 13.9 21.7 0.00 0.00 0.00 66 1017.6
20260906164135 81 157 14.8 21.7 0.00 0.00 0.00 65 1017.6
20260906163645 81 126 13.9 22.6 0.00 0.00 0.00 65 1017.7
20260906163242 80 142 14.8 22.6 0.00 0.00 0.00 65 1017.7
20260906163135 80 171 16.5 22.6 0.00 0.00 0.00 65 1017.8
20260906162645 80 128 13.0 24.3 0.00 0.00 0.00 66 1017.8
20260906162243 80 150 13.9 23.5 0.00 0.00 0.00 66 1017.7
20260906162136 80 165 12.2 23.5 0.00 0.00 0.00 66 1017.8
20260906161646 80 140 16.5 23.5 0.00 0.00 0.00 67 1017.7
20260906161301 81 146 16.5 23.5 0.00 0.00 0.00 66 1017.8
20260906161153 81 133 16.5 23.5 0.00 0.00 0.00 65 1017.7
20260906160642 81 153 17.4 23.5 0.00 0.00 0.00 64 1017.7
20260906160239 82 150 13.0 23.5 0.00 0.00 0.00 64 1017.7
20260906160136 82 152 13.9 23.5 0.00 0.00 0.00 63 1017.7
20260906155706 83 167 16.5 23.5 0.00 0.00 0.00 63 1017.7
20260906155237 83 158 15.6 23.5 0.00 0.00 0.00 62 1017.7
20260906155152 83 135 15.6 23.5 0.00 0.00 0.00 62 1017.7
20260906154641 82 141 14.8 20.9 0.00 0.00 0.00 64 1017.7
20260906154239 82 157 11.3 20.9 0.00 0.00 0.00 64 1017.6
20260906154151 82 155 10.4 20.9 0.00 0.00 0.00 64 1017.6
20260906153641 82 163 13.9 19.1 0.00 0.00 0.00 63 1017.6
20260906153237 82 149 9.6 18.2 0.00 0.00 0.00 64 1017.6
20260906153151 81 155 10.4 18.2 0.00 0.00 0.00 64 1017.5
20260906152639 81 149 12.2 18.2 0.00 0.00 0.00 66 1017.5
20260906152236 80 141 6.1 17.4 0.00 0.00 0.00 67 1017.6
20260906152149 80 138 7.8 17.4 0.00 0.00 0.00 67 1017.6
20260906151639 80 174 7.8 15.6 0.00 0.00 0.00 70 1017.5
20260906151236 79 283 9.6 15.6 0.00 0.00 0.00 69 1017.6
20260906151149 79 149 9.6 15.6 0.00 0.00 0.00 70 1017.5
20260906150640 78 186 6.1 13.0 0.00 0.00 0.00 73 1017.6
20260906150251 78 150 7.0 17.4 0.00 0.00 0.00 73 1017.6
20260906150147 78 79 7.0 17.4 0.00 0.00 0.00 74 1017.6
20260906145638 78 144 7.8 19.1 0.00 0.00 0.00 73 1017.6
20260906145234 77 148 9.6 19.1 0.00 0.00 0.00 74 1017.7
20260906145147 77 108 7.0 15.6 0.00 0.00 0.00 75 1017.7
20260906144638 76 167 6.1 14.8 0.00 0.00 0.00 76 1017.6
20260906144234 76 319 6.1 14.8 0.00 0.00 0.00 78 1017.6
20260906144147 76 65 6.1 13.0 0.00 0.00 0.00 78 1017.6
20260906143658 75 117 7.0 15.6 0.00 0.00 0.00 78 1017.5
20260906143314 75 312 6.1 15.6 0.00 0.00 0.00 78 1017.4
20260906143146 75 186 7.0 15.6 0.00 0.00 0.00 78 1017.4
20260906142635 75 218 7.0 13.9 0.00 0.00 0.00 78 1017.4
20260906142251 75 218 7.8 16.5 0.00 0.00 0.00 78 1017.3
20260906142204 75 56 7.8 16.5 0.00 0.00 0.00 78 1017.3
20260906141713 75 146 7.8 16.5 0.00 0.00 0.00 77 1017.3
20260906141248 74 167 7.8 16.5 0.00 0.00 0.00 78 1017.2
20260906141140 74 94 7.8 16.5 0.00 0.00 0.00 79 1017.3
20260906140651 74 128 7.8 13.0 0.00 0.00 0.00 79 1017.4
20260906140247 74 271 7.0 14.8 0.00 0.00 0.00 80 1017.4
20260906140144 73 159 7.8 13.9 0.00 0.00 0.00 79 1017.5
20260906135713 73 144 7.8 16.5 0.00 0.00 0.00 80 1017.4
20260906135244 73 65 7.8 16.5 0.00 0.00 0.00 81 1017.4
20260906135139 73 299 7.8 10.4 0.00 0.00 0.00 81 1017.4
20260906134649 73 127 7.0 10.4 0.00 0.00 0.00 82 1017.4
20260906134306 72 116 6.1 13.0 0.00 0.00 0.00 83 1017.4
20260906134157 72 69 6.1 13.0 0.00 0.00 0.00 83 1017.4
20260906133645 72 269 7.0 13.0 0.00 0.00 0.00 83 1017.4
20260906133302 72 200 7.0 12.2 0.00 0.00 0.00 84 1017.4
20260906133134 72 93 7.0 12.2 0.00 0.00 0.00 84 1017.4
20260906132644 71 94 6.1 9.6 0.00 0.00 0.00 84 1017.4
20260906132239 71 312 4.3 11.3 0.00 0.00 0.00 85 1017.4
20260906132152 71 156 4.3 11.3 0.00 0.00 0.00 85 1017.4
20260906131642 71 107 7.0 13.0 0.00 0.00 0.00 85 1017.5
20260906131259 71 88 7.8 13.0 0.00 0.00 0.00 85 1017.4
20260906131151 70 92 8.7 13.0 0.00 0.00 0.00 85 1017.5
20260906130640 70 67 8.7 11.3 0.00 0.00 0.00 86 1017.5
20260906130237 70 71 7.0 9.6 0.00 0.00 0.00 88 1017.4
20260906130150 69 87 6.1 9.6 0.00 0.00 0.00 88 1017.4
20260906125643 69 81 6.1 8.7 0.00 0.00 0.00 89 1017.3
20260906125240 69 54 7.0 8.7 0.00 0.00 0.00 89 1017.4
20260906125153 69 53 6.1 8.7 0.00 0.00 0.00 89 1017.4
20260906124702 69 30 3.5 8.7 0.00 0.00 0.00 88 1017.4
20260906124236 69 46 6.1 7.8 0.00 0.00 0.00 88 1017.3
20260906124207 69 66 6.1 7.8 0.00 0.00 0.00 88 1017.3
20260906123636 69 63 4.3 5.2 0.00 0.00 0.00 88 1017.1
20260906123252 69 60 3.5 5.2 0.00 0.00 0.00 88 1017.0
20260906123145 69 60 3.5 5.2 0.00 0.00 0.00 88 1017.0
20260906122634 69 61 4.3 5.2 0.00 0.00 0.00 88 1017.0
20260906122250 69 61 3.5 4.3 0.00 0.00 0.00 88 1017.0
20260906122143 69 57 3.5 4.3 0.00 0.00 0.00 88 1017.0
20260906121653 69 61 2.6 3.5 0.00 0.00 0.00 87 1017.0
20260906121250 69 50 1.7 3.5 0.00 0.00 0.00 87 1016.9
20260906121142 69 36 1.7 2.6 0.00 0.00 0.00 87 1016.9
20260906120636 69 43 1.7 4.3 0.00 0.00 0.00 86 1017.0
20260906120248 70 33 1.7 5.2 0.00 0.00 0.00 86 1017.1
20260906120144 70 30 2.6 5.2 0.00 0.00 0.00 86 1017.0
20260906115714 70 56 4.3 5.2 0.00 0.00 0.00 86 1016.8
20260906115246 70 46 3.5 5.2 0.00 0.00 0.00 86 1016.8
20260906115142 70 44 3.5 5.2 0.00 0.00 0.00 85 1016.8
20260906114652 70 48 2.6 4.3 0.00 0.00 0.00 85 1016.7
20260906114310 70 34 3.5 4.3 0.00 0.00 0.00 85 1016.7
20260906114143 70 46 3.5 3.5 0.00 0.00 0.00 85 1016.7
20260906113650 70 45 2.6 3.5 0.00 0.00 0.00 84 1016.7
20260906113247 70 360 0.9 2.6 0.00 0.00 0.00 84 1016.5
20260906113140 70 360 0.9 2.6 0.00 0.00 0.00 84 1016.5
20260906112651 70 16 1.7 2.6 0.00 0.00 0.00 83 1016.5
20260906112249 70 9 1.7 2.6 0.00 0.00 0.00 83 1016.5
20260906112140 70 355 0.9 1.7 0.00 0.00 0.00 83 1016.5
20260906111651 70 22 0.0 1.7 0.00 0.00 0.00 82 1016.5
20260906111308 70 5 0.9 1.7 0.00 0.00 0.00 82 1016.5
20260906111158 70 5 0.0 1.7 0.00 0.00 0.00 82 1016.5
20260906110647 70 117 0.0 1.7 0.00 0.00 0.00 82 1016.5
20260906110243 70 117 0.9 1.7 0.00 0.00 0.00 82 1016.5
20260906110141 70 117 0.9 1.7 0.00 0.00 0.00 82 1016.6
20260906105651 70 117 0.9 2.6 0.00 0.00 0.00 82 1016.7
20260906105248 70 13 0.9 4.3 0.00 0.00 0.00 82 1016.7
20260906105140 70 23 0.9 7.0 0.00 0.00 0.00 82 1016.7
20260906104710 71 355 2.6 7.8 0.00 0.00 0.00 82 1016.7
20260906104246 71 355 4.3 7.8 0.00 0.00 0.00 81 1016.7
20260906104158 71 355 4.3 7.8 0.00 0.00 0.00 81 1016.7
20260906103649 71 339 5.2 7.8 0.00 0.00 0.00 81 1016.7
20260906103305 71 355 3.5 5.2 0.00 0.00 0.00 80 1016.6
20260906103158 71 323 4.3 5.2 0.00 0.00 0.00 80 1016.6
20260906102646 71 223 0.9 4.3 0.00 0.00 0.00 80 1016.4
20260906102243 71 169 2.6 6.1 0.00 0.00 0.00 80 1016.2
20260906102156 71 153 2.6 7.0 0.00 0.00 0.00 79 1016.1
20260906101644 71 184 3.5 7.8 0.00 0.00 0.00 79 1016.0
20260906101241 71 159 4.3 7.8 0.00 0.00 0.00 80 1015.9
20260906101134 71 150 4.3 7.0 0.00 0.00 0.00 80 1015.9
20260906100644 71 162 4.3 7.8 0.00 0.00 0.00 79 1015.8
20260906100240 71 153 5.2 7.8 0.00 0.00 0.00 80 1015.9
20260906100153 71 146 5.2 7.8 0.00 0.00 0.00 80 1015.9
20260906095647 71 173 5.2 7.8 0.00 0.00 0.00 80 1015.9
20260906095238 71 147 5.2 7.8 0.00 0.00 0.00 81 1016.0
20260906095135 71 148 4.3 7.0 0.00 0.00 0.00 81 1016.0
20260906094644 71 147 5.2 7.0 0.00 0.00 0.00 83 1016.0
20260906094240 71 153 4.3 6.1 0.00 0.00 0.00 84 1016.1
20260906094153 71 143 4.3 7.8 0.00 0.00 0.00 84 1016.1
20260906093643 71 147 4.3 7.0 0.00 0.00 0.00 84 1016.0
20260906093240 71 155 3.5 7.0 0.00 0.00 0.00 85 1016.0
20260906093214 71 150 4.3 7.0 0.00 0.00 0.00 85 1016.0
20260906092642 71 146 3.5 6.1 0.00 0.00 0.00 85 1016.0
20260906092258 71 138 4.3 6.1 0.00 0.00 0.00 85 1016.0
20260906092149 71 146 4.3 6.1 0.00 0.00 0.00 85 1016.0
20260906091659 71 159 3.5 6.1 0.00 0.00 0.00 85 1015.9
20260906091234 71 161 4.3 5.2 0.00 0.00 0.00 85 1015.9
20260906091146 71 143 3.5 5.2 0.00 0.00 0.00 85 1015.9
20260906090636 71 167 3.5 4.3 0.00 0.00 0.00 84 1015.9
20260906090253 71 196 2.6 3.5 0.00 0.00 0.00 84 1015.8
20260906090146 71 200 2.6 3.5 0.00 0.00 0.00 84 1015.8
20260906085637 71 190 2.6 3.5 0.00 0.00 0.00 85 1015.7
20260906085311 71 224 2.6 2.6 0.00 0.00 0.00 84 1015.5
20260906085146 71 233 2.6 2.6 0.00 0.00 0.00 84 1015.5
20260906084637 71 217 1.7 3.5 0.00 0.00 0.00 84 1015.5
20260906084254 71 221 1.7 3.5 0.00 0.00 0.00 84 1015.4
20260906084146 71 221 1.7 3.5 0.00 0.00 0.00 84 1015.4
20260906083637 71 206 1.7 3.5 0.00 0.00 0.00 84 1015.5
20260906083253 71 230 1.7 3.5 0.00 0.00 0.00 84 1015.6
20260906083146 71 232 1.7 3.5 0.00 0.00 0.00 83 1015.6
20260906082636 71 219 2.6 3.5 0.00 0.00 0.00 83 1015.8
20260906082253 71 211 1.7 3.5 0.00 0.00 0.00 82 1015.7
20260906082146 72 205 1.7 3.5 0.00 0.00 0.00 82 1015.7
20260906081636 72 212 1.7 3.5 0.00 0.00 0.00 82 1015.8
20260906081253 72 207 0.0 3.5 0.00 0.00 0.00 81 1015.9
20260906081151 72 207 0.9 3.5 0.00 0.00 0.00 81 1016.0
20260906080641 72 134 1.7 3.5 0.00 0.00 0.00 80 1016.0
20260906080237 72 144 2.6 4.3 0.00 0.00 0.00 80 1016.0
20260906080150 72 139 1.7 4.3 0.00 0.00 0.00 80 1016.0
20260906075638 72 113 2.6 3.5 0.00 0.00 0.00 80 1015.9
20260906075254 73 147 1.7 3.5 0.00 0.00 0.00 80 1015.9
20260906075147 73 91 1.7 3.5 0.00 0.00 0.00 79 1015.9
20260906074638 73 87 1.7 3.5 0.00 0.00 0.00 79 1015.9
20260906074313 73 88 2.6 6.1 0.00 0.00 0.00 78 1015.9
20260906074145 73 99 1.7 6.1 0.00 0.00 0.00 78 1015.8
20260906073636 73 176 2.6 6.1 0.00 0.00 0.00 78 1015.8
20260906073252 73 146 3.5 6.1 0.00 0.00 0.00 78 1015.9
20260906073145 73 146 3.5 6.1 0.00 0.00 0.00 78 1015.9
20260906072655 73 162 3.5 6.1 0.00 0.00 0.00 78 1015.9
20260906072249 73 134 3.5 7.8 0.00 0.00 0.00 78 1015.9
20260906072146 73 185 3.5 7.8 0.00 0.00 0.00 78 1015.8
20260906071636 73 143 4.3 10.4 0.00 0.00 0.00 78 1015.7
20260906071252 73 142 7.8 10.4 0.00 0.00 0.00 77 1015.7
20260906071145 73 136 7.8 10.4 0.00 0.00 0.00 77 1015.8
20260906070635 73 142 7.0 10.4 0.00 0.00 0.00 77 1015.7
20260906070250 73 134 7.0 10.4 0.00 0.00 0.00 77 1015.8
20260906070143 73 216 6.1 10.4 0.00 0.00 0.00 77 1015.8
20260906065653 73 142 6.1 8.7 0.00 0.00 0.00 77 1015.6
20260906065250 73 153 4.3 7.8 0.00 0.00 0.00 77 1015.7
20260906065143 73 163 4.3 7.8 0.00 0.00 0.00 77 1015.6
20260906064653 73 150 5.2 8.7 0.00 0.00 0.00 76 1015.6
20260906064249 73 144 4.3 8.7 0.00 0.00 0.00 76 1015.4
20260906064142 73 161 5.2 8.7 0.00 0.00 0.00 76 1015.4
20260906063635 73 159 4.3 8.7 0.00 0.00 0.00 76 1015.4
20260906063248 73 140 5.2 8.7 0.00 0.00 0.00 76 1015.4
20260906063205 73 150 5.2 8.7 0.00 0.00 0.00 76 1015.4
20260906062653 73 157 6.1 8.7 0.00 0.00 0.00 76 1015.3
20260906062246 73 137 6.1 7.8 0.00 0.00 0.00 76 1015.4
20260906062143 73 142 5.2 7.8 0.00 0.00 0.00 76 1015.4
20260906061652 74 146 5.2 7.8 0.00 0.00 0.00 76 1015.3
20260906061249 73 178 5.2 7.0 0.00 0.00 0.00 75 1015.4
20260906061142 73 166 5.2 7.8 0.00 0.00 0.00 75 1015.4
20260906060650 73 163 6.1 7.8 0.00 0.00 0.00 76 1015.3
20260906060247 73 187 6.1 7.8 0.00 0.00 0.00 76 1015.3
20260906060159 73 159 6.1 8.7 0.00 0.00 0.00 76 1015.3
20260906055648 73 160 6.1 8.7 0.00 0.00 0.00 76 1015.3
20260906055244 73 154 7.0 8.7 0.00 0.00 0.00 76 1015.3
20260906055137 73 163 7.0 9.6 0.00 0.00 0.00 76 1015.2
20260906054708 73 163 7.8 10.4 0.00 0.00 0.00 76 1015.1
20260906054243 73 173 7.8 10.4 0.00 0.00 0.00 76 1015.1
20260906054136 73 153 7.8 10.4 0.00 0.00 0.00 76 1015.1
20260906053650 73 173 7.0 10.4 0.00 0.00 0.00 75 1015.1
20260906053242 73 178 6.1 9.6 0.00 0.00 0.00 75 1015.1
20260906053138 73 163 7.0 9.6 0.00 0.00 0.00 75 1015.1
20260906052708 73 159 6.1 10.4 0.00 0.00 0.00 75 1015.1
20260906052242 73 161 7.0 10.4 0.00 0.00 0.00 75 1015.0
20260906052135 73 146 7.0 9.6 0.00 0.00 0.00 75 1014.9
20260906051645 73 170 7.8 11.3 0.00 0.00 0.00 75 1014.9
20260906051241 74 163 7.0 11.3 0.00 0.00 0.00 75 1014.8
20260906051154 74 145 7.0 11.3 0.00 0.00 0.00 75 1014.8
20260906050644 74 131 7.0 9.6 0.00 0.00 0.00 75 1014.8
20260906050239 74 130 7.0 9.6 0.00 0.00 0.00 74 1014.8
20260906050150 74 167 7.0 10.4 0.00 0.00 0.00 74 1014.7
20260906045640 74 138 7.0 11.3 0.00 0.00 0.00 74 1014.8
20260906045238 74 152 7.0 11.3 0.00 0.00 0.00 74 1014.9
20260906045150 74 157 7.0 11.3 0.00 0.00 0.00 74 1014.9
20260906044643 74 163 6.1 11.3 0.00 0.00 0.00 73 1015.0
20260906044240 75 151 7.0 11.3 0.00 0.00 0.00 73 1014.9
20260906044150 75 139 7.8 11.3 0.00 0.00 0.00 73 1015.0
20260906043641 75 161 7.8 10.4 0.00 0.00 0.00 73 1015.0
20260906043316 75 164 7.8 10.4 0.00 0.00 0.00 73 1015.0
20260906043147 75 136 7.8 10.4 0.00 0.00 0.00 73 1015.1
20260906042636 75 172 7.0 12.2 0.00 0.00 0.00 73 1015.3
20260906042252 75 145 7.0 12.2 0.00 0.00 0.00 73 1015.3
20260906042144 75 150 7.0 12.2 0.00 0.00 0.00 72 1015.3
20260906041654 75 163 7.0 9.6 0.00 0.00 0.00 72 1015.3
20260906041251 76 147 7.0 9.6 0.00 0.00 0.00 72 1015.3
20260906041203 76 188 7.0 9.6 0.00 0.00 0.00 72 1015.4
20260906040648 76 164 6.1 9.6 0.00 0.00 0.00 71 1015.4
20260906040245 76 163 6.1 9.6 0.00 0.00 0.00 71 1015.4
20260906040138 76 159 6.1 12.2 0.00 0.00 0.00 71 1015.4
20260906035648 77 153 6.1 12.2 0.00 0.00 0.00 70 1015.4
20260906035306 77 138 7.0 10.4 0.00 0.00 0.00 70 1015.6
20260906035139 77 146 7.0 10.4 0.00 0.00 0.00 70 1015.6
20260906034649 77 153 7.0 12.2 0.00 0.00 0.00 70 1015.5
20260906034246 77 139 7.0 11.3 0.00 0.00 0.00 69 1015.5
20260906034139 77 160 7.0 11.3 0.00 0.00 0.00 69 1015.4
20260906033648 77 140 7.8 11.3 0.00 0.00 0.00 69 1015.4
20260906033245 77 147 7.8 13.0 0.00 0.00 0.00 68 1015.4
20260906033138 77 170 7.8 13.0 0.00 0.00 0.00 68 1015.4
20260906032647 78 161 7.8 13.0 0.00 0.00 0.00 68 1015.4
20260906032242 78 132 7.8 14.8 0.00 0.00 0.00 68 1015.3
20260906032155 78 163 7.8 14.8 0.00 0.00 0.00 68 1015.3
20260906031642 78 153 9.6 14.8 0.00 0.00 0.00 67 1015.3
20260906031239 78 151 9.6 14.8 0.00 0.00 0.00 67 1015.2
20260906031151 78 180 10.4 14.8 0.00 0.00 0.00 67 1015.1
20260906030641 78 173 10.4 14.8 0.00 0.00 0.00 67 1015.1
20260906030238 78 161 10.4 15.6 0.00 0.00 0.00 66 1015.1
20260906030211 79 130 10.4 15.6 0.00 0.00 0.00 66 1015.1
20260906025704 79 112 9.6 14.8 0.00 0.00 0.00 65 1015.0
20260906025237 79 151 11.3 16.5 0.00 0.00 0.00 65 1014.9
20260906025153 79 171 11.3 16.5 0.00 0.00 0.00 65 1014.8
20260906024643 79 120 11.3 17.4 0.00 0.00 0.00 64 1014.8
20260906024239 79 144 10.4 16.5 0.00 0.00 0.00 64 1014.8
20260906024152 79 101 10.4 16.5 0.00 0.00 0.00 64 1014.8
20260906023642 80 126 10.4 16.5 0.00 0.00 0.00 63 1014.9
20260906023238 80 169 9.6 15.6 0.00 0.00 0.00 63 1015.0
20260906023212 80 159 9.6 15.6 0.00 0.00 0.00 63 1014.9
20260906022640 80 121 8.7 13.9 0.00 0.00 0.00 63 1014.8
20260906022236 79 158 7.0 10.4 0.00 0.00 0.00 63 1014.9
20260906022147 80 148 6.1 10.4 0.00 0.00 0.00 63 1014.9
20260906021637 80 173 5.2 8.7 0.00 0.00 0.00 62 1014.8
20260906021254 80 100 6.1 8.7 0.00 0.00 0.00 61 1014.8
20260906021147 80 98 7.8 8.7 0.00 0.00 0.00 61 1014.8
20260906020641 80 155 6.1 7.0 0.00 0.00 0.00 60 1014.7
20260906020315 81 155 5.2 7.0 0.00 0.00 0.00 60 1014.6
20260906020150 81 146 5.2 7.0 0.00 0.00 0.00 60 1014.6
20260906015639 81 159 5.2 7.0 0.00 0.00 0.00 59 1014.7
20260906015237 82 172 4.3 7.0 0.00 0.00 0.00 58 1014.6
20260906015149 82 141 4.3 7.0 0.00 0.00 0.00 58 1014.6
20260906014639 82 153 4.3 7.8 0.00 0.00 0.00 58 1014.5
20260906014253 83 149 5.2 8.7 0.00 0.00 0.00 57 1014.3
20260906014146 83 153 5.2 8.7 0.00 0.00 0.00 57 1014.3
20260906013653 83 147 5.2 9.6 0.00 0.00 0.00 56 1014.3
20260906013250 83 140 6.1 10.4 0.00 0.00 0.00 55 1014.2
20260906013144 84 145 6.1 10.4 0.00 0.00 0.00 55 1014.1
20260906012654 84 156 6.1 10.4 0.00 0.00 0.00 54 1014.1
20260906012249 84 172 6.1 10.4 0.00 0.00 0.00 54 1014.0
20260906012146 84 200 6.1 10.4 0.00 0.00 0.00 54 1014.0
20260906011636 85 139 7.8 10.4 0.00 0.00 0.00 53 1014.0
20260906011252 85 183 7.0 10.4 0.00 0.00 0.00 53 1014.0
20260906011145 85 142 7.0 10.4 0.00 0.00 0.00 53 1013.9
20260906010653 86 157 8.7 14.8 0.00 0.00 0.00 53 1014.0
20260906010249 86 186 8.7 14.8 0.00 0.00 0.00 52 1013.9
20260906010203 86 167 8.7 14.8 0.00 0.00 0.00 52 1013.9
20260906005652 86 153 8.7 14.8 0.00 0.00 0.00 52 1013.8
20260906005247 87 184 9.6 15.6 0.00 0.00 0.00 51 1013.9
20260906005139 87 154 8.7 15.6 0.00 0.00 0.00 51 1013.8
20260906004648 87 148 9.6 14.8 0.00 0.00 0.00 51 1013.8
20260906004245 87 170 10.4 14.8 0.00 0.00 0.00 50 1013.7
20260906004137 88 155 10.4 14.8 0.00 0.00 0.00 50 1013.8
20260906003648 88 175 9.6 18.2 0.00 0.00 0.00 49 1013.7
20260906003305 88 146 9.6 18.2 0.00 0.00 0.00 48 1013.5
20260906003140 88 171 9.6 18.2 0.00 0.00 0.00 48 1013.5
20260906002649 89 153 10.4 18.2 0.00 0.00 0.00 47 1013.4
20260906002245 90 160 10.4 18.2 0.00 0.00 0.00 46 1013.5
20260906002138 90 188 11.3 18.2 0.00 0.00 0.00 45 1013.4
20260906001649 91 117 10.4 16.5 0.00 0.00 0.00 44 1013.4
20260906001244 91 166 10.4 18.2 0.00 0.00 0.00 45 1013.4
20260906001158 91 141 11.3 18.2 0.00 0.00 0.00 45 1013.4
20260906000707 91 174 11.3 18.2 0.00 0.00 0.00 46 1013.4
20260906000243 92 175 10.4 16.5 0.00 0.00 0.00 45 1013.4
20260906000154 92 125 9.6 16.5 0.00 0.00 0.00 45 1013.4
20260905235644 92 100 11.3 20.9 0.00 0.00 0.00 44 1013.4
20260905235300 92 167 12.2 20.9 0.00 0.00 0.00 45 1013.4
20260905235211 92 159 13.0 20.9 0.00 0.00 0.00 45 1013.4
20260905234641 92 146 9.6 19.1 0.00 0.00 0.00 45 1013.5
20260905234238 92 157 12.2 19.1 0.00 0.00 0.00 45 1013.4
20260905234151 92 183 12.2 19.1 0.00 0.00 0.00 45 1013.4
20260905233641 93 178 11.3 18.2 0.00 0.00 0.00 44 1013.5
20260905233236 93 168 9.6 18.2 0.00 0.00 0.00 45 1013.6
20260905233209 93 163 8.7 20.9 0.00 0.00 0.00 46 1013.6
20260905232641 93 162 9.6 20.9 0.00 0.00 0.00 45 1013.6
20260905232253 93 130 13.0 19.1 0.00 0.00 0.00 44 1013.6
20260905232151 93 146 12.2 18.2 0.00 0.00 0.00 44 1013.5
20260905231640 93 67 11.3 19.1 0.00 0.00 0.00 44 1013.6
20260905231236 93 162 11.3 18.2 0.00 0.00 0.00 45 1013.6
20260905231149 93 194 10.4 17.4 0.00 0.00 0.00 45 1013.5
20260905230639 94 178 10.4 19.1 0.00 0.00 0.00 45 1013.4
20260905230255 94 158 11.3 19.1 0.00 0.00 0.00 44 1013.4
20260905230148 94 155 13.0 19.1 0.00 0.00 0.00 43 1013.4
20260905225638 94 153 12.2 17.4 0.00 0.00 0.00 46 1013.3
20260905225315 94 160 8.7 16.5 0.00 0.00 0.00 44 1013.3
20260905225207 94 150 9.6 16.5 0.00 0.00 0.00 43 1013.3
20260905224636 94 140 12.2 19.1 0.00 0.00 0.00 43 1013.3
20260905224252 94 169 12.2 22.6 0.00 0.00 0.00 43 1013.3
20260905224143 94 167 12.2 22.6 0.00 0.00 0.00 42 1013.3
20260905223709 95 136 14.8 22.6 0.00 0.00 0.00 43 1013.3
20260905223304 95 148 13.0 18.2 0.00 0.00 0.00 44 1013.3
20260905223137 95 147 12.2 18.2 0.00 0.00 0.00 44 1013.3
20260905222646 95 149 12.2 18.2 0.00 0.00 0.00 42 1013.4
20260905222305 95 141 13.0 18.2 0.00 0.00 0.00 44 1013.4
20260905222138 95 142 12.2 18.2 0.00 0.00 0.00 44 1013.4
20260905221708 94 163 11.3 18.2 0.00 0.00 0.00 43 1013.3
20260905221240 95 173 12.2 18.2 0.00 0.00 0.00 41 1013.3
20260905221157 95 159 12.2 17.4 0.00 0.00 0.00 41 1013.4
20260905220646 95 86 9.6 17.4 0.00 0.00 0.00 42 1013.4
20260905220239 95 151 11.3 18.2 0.00 0.00 0.00 43 1013.5
20260905220152 95 147 10.4 18.2 0.00 0.00 0.00 41 1013.4
20260905215642 95 177 12.2 20.0 0.00 0.00 0.00 43 1013.5
20260905215259 94 146 12.2 20.0 0.00 0.00 0.00 44 1013.5
20260905215151 94 123 10.4 20.0 0.00 0.00 0.00 44 1013.4
20260905214700 94 154 13.0 20.9 0.00 0.00 0.00 45 1013.4
20260905214236 94 162 13.9 20.9 0.00 0.00 0.00 44 1013.6
20260905214147 94 139 13.9 20.9 0.00 0.00 0.00 45 1013.6
20260905213637 94 142 13.9 20.0 0.00 0.00 0.00 46 1013.6
20260905213254 94 147 12.2 20.9 0.00 0.00 0.00 46 1013.5
20260905213147 94 294 13.0 20.9 0.00 0.00 0.00 47 1013.6
20260905212655 94 81 12.2 20.9 0.00 0.00 0.00 47 1013.7
20260905212251 93 141 14.8 20.9 0.00 0.00 0.00 46 1013.8
20260905212204 93 117 13.0 20.0 0.00 0.00 0.00 46 1013.8
20260905211638 93 99 11.3 20.0 0.00 0.00 0.00 47 1013.8
20260905211251 93 202 11.3 22.6 0.00 0.00 0.00 47 1014.0
20260905211148 93 212 10.4 22.6 0.00 0.00 0.00 46 1014.0
20260905210638 93 281 8.7 22.6 0.00 0.00 0.00 47 1014.1
20260905210254 93 145 13.0 20.9 0.00 0.00 0.00 46 1014.2
20260905210146 93 251 11.3 20.0 0.00 0.00 0.00 48 1014.2
20260905205636 93 142 12.2 19.1 0.00 0.00 0.00 49 1014.3
20260905205253 93 295 9.6 20.9 0.00 0.00 0.00 50 1014.3
20260905205146 93 98 9.6 20.9 0.00 0.00 0.00 50 1014.4